| time (UTC) | temp F | wind direction | speed MPH | gust MPH | rain 1hr in | rain 24hr in | rain mn in | humidity % | barometer mb |
| 20260906074608 | 67 | 302 | 1.0 | 4.0 | 0.00 | 0.00 | 0.00 | 89 | 1011.6 |
| 20260906073100 | 67 | 302 | 2.0 | 4.0 | 0.00 | 0.00 | 0.00 | 88 | 1011.5 |
| 20260906071558 | 67 | 302 | 0.0 | 3.0 | 0.00 | 0.00 | 0.00 | 88 | 1011.5 |
| 20260906070051 | 67 | 302 | 1.0 | 3.0 | 0.00 | 0.00 | 0.00 | 88 | 1011.7 |
| 20260906064555 | 67 | 302 | 2.0 | 4.0 | 0.00 | 0.00 | 0.00 | 88 | 1011.5 |
| 20260906063055 | 67 | 49 | 2.0 | 3.0 | 0.00 | 0.00 | 0.00 | 88 | 1011.6 |
| 20260906061557 | 67 | 49 | 1.0 | 3.0 | 0.00 | 0.00 | 0.00 | 89 | 1011.7 |
| 20260906060051 | 67 | 49 | 1.0 | 2.0 | 0.00 | 0.00 | 0.00 | 89 | 1011.8 |
| 20260906054547 | 67 | 0 | 0.0 | 0.0 | 0.00 | 0.00 | 0.00 | 88 | 1011.8 |
| 20260906053050 | 68 | 0 | 0.0 | 0.0 | 0.00 | 0.00 | 0.00 | 88 | 1012.1 |
| 20260906051603 | 68 | 0 | 0.0 | 0.0 | 0.00 | 0.00 | 0.00 | 88 | 1012.2 |
| 20260906050056 | 68 | 0 | 0.0 | 0.0 | 0.00 | 0.00 | 0.00 | 88 | 1012.2 |
| 20260906044552 | 68 | 0 | 0.0 | 0.0 | 0.00 | 0.00 | 0.00 | 87 | 1012.3 |
| 20260906043048 | 68 | 0 | 0.0 | 0.0 | 0.00 | 0.00 | 0.00 | 87 | 1012.5 |
| 20260906041553 | 69 | 0 | 0.0 | 0.0 | 0.00 | 0.00 | 0.00 | 86 | 1012.5 |
| 20260906040055 | 69 | 0 | 0.0 | 0.0 | 0.00 | 0.00 | 0.00 | 86 | 1012.6 |
| 20260906034551 | 69 | 0 | 0.0 | 0.0 | 0.00 | 0.00 | 0.00 | 85 | 1012.5 |
| 20260906033059 | 70 | 0 | 0.0 | 0.0 | 0.00 | 0.00 | 0.00 | 84 | 1012.5 |
| 20260906031601 | 70 | 0 | 0.0 | 0.0 | 0.00 | 0.00 | 0.00 | 84 | 1012.4 |
| 20260906030053 | 71 | 0 | 0.0 | 0.0 | 0.00 | 0.00 | 0.00 | 83 | 1012.3 |
| 20260906024602 | 71 | 0 | 0.0 | 0.0 | 0.00 | 0.00 | 0.00 | 82 | 1012.5 |
| 20260906023053 | 72 | 0 | 0.0 | 0.0 | 0.00 | 0.00 | 0.00 | 80 | 1012.3 |
| 20260906021553 | 72 | 0 | 0.0 | 0.0 | 0.00 | 0.00 | 0.00 | 78 | 1012.1 |
| 20260906020105 | 73 | 0 | 0.0 | 0.0 | 0.00 | 0.00 | 0.00 | 76 | 1012.2 |
| 20260906014555 | 74 | 0 | 0.0 | 0.0 | 0.00 | 0.00 | 0.00 | 74 | 1011.9 |
| 20260906013053 | 75 | 49 | 1.0 | 3.0 | 0.00 | 0.00 | 0.00 | 73 | 1011.7 |
| 20260906011553 | 76 | 0 | 0.0 | 3.0 | 0.00 | 0.00 | 0.00 | 70 | 1011.7 |
| 20260906010101 | 77 | 51 | 2.0 | 5.0 | 0.00 | 0.00 | 0.00 | 66 | 1011.7 |
| 20260906004547 | 77 | 298 | 1.0 | 5.0 | 0.00 | 0.00 | 0.00 | 67 | 1011.8 |
| 20260906003057 | 77 | 306 | 2.0 | 6.0 | 0.00 | 0.00 | 0.00 | 67 | 1011.6 |
| 20260906001554 | 77 | 329 | 2.0 | 6.0 | 0.00 | 0.00 | 0.00 | 68 | 1011.4 |
| 20260906000050 | 77 | 327 | 2.0 | 5.0 | 0.00 | 0.00 | 0.00 | 67 | 1011.3 |
| 20260905234558 | 77 | 317 | 2.0 | 8.0 | 0.00 | 0.00 | 0.00 | 69 | 1011.2 |
| 20260905233054 | 77 | 12 | 2.0 | 6.0 | 0.00 | 0.00 | 0.00 | 67 | 1011.2 |
| 20260905231554 | 78 | 331 | 3.0 | 7.0 | 0.00 | 0.00 | 0.00 | 66 | 1011.2 |
| 20260905230054 | 78 | 344 | 1.0 | 5.0 | 0.00 | 0.00 | 0.00 | 68 | 1011.2 |
| 20260905224605 | 79 | 0 | 1.0 | 5.0 | 0.00 | 0.00 | 0.00 | 67 | 1011.0 |
| 20260905223054 | 79 | 309 | 2.0 | 6.0 | 0.00 | 0.00 | 0.00 | 66 | 1010.8 |
| 20260905221602 | 79 | 271 | 1.0 | 5.0 | 0.00 | 0.00 | 0.00 | 67 | 1010.9 |
| 20260905220108 | 79 | 335 | 2.0 | 8.0 | 0.00 | 0.00 | 0.00 | 67 | 1010.8 |
| 20260905214556 | 79 | 340 | 4.0 | 10.0 | 0.00 | 0.00 | 0.00 | 66 | 1010.7 |
| 20260905213053 | 78 | 347 | 5.0 | 10.0 | 0.00 | 0.00 | 0.00 | 66 | 1010.5 |
| 20260905211626 | 78 | 334 | 4.0 | 10.0 | 0.00 | 0.00 | 0.00 | 69 | 1010.2 |
| 20260905210055 | 78 | 338 | 5.0 | 10.0 | 0.00 | 0.00 | 0.00 | 68 | 1010.0 |
| 20260905204556 | 78 | 5 | 4.0 | 11.0 | 0.00 | 0.00 | 0.00 | 68 | 1010.2 |
| 20260905203110 | 78 | 29 | 5.0 | 11.0 | 0.00 | 0.00 | 0.00 | 67 | 1010.1 |
| 20260905201559 | 79 | 9 | 5.0 | 12.0 | 0.00 | 0.00 | 0.00 | 68 | 1010.4 |
| 20260905200058 | 79 | 329 | 5.0 | 10.0 | 0.00 | 0.00 | 0.00 | 66 | 1010.6 |
| 20260905194600 | 79 | 360 | 3.0 | 12.0 | 0.00 | 0.00 | 0.00 | 67 | 1010.5 |
| 20260905193055 | 79 | 329 | 4.0 | 11.0 | 0.00 | 0.00 | 0.00 | 66 | 1011.0 |
| 20260905191551 | 79 | 302 | 5.0 | 13.0 | 0.00 | 0.00 | 0.00 | 64 | 1011.1 |
| 20260905190052 | 80 | 346 | 5.0 | 11.0 | 0.00 | 0.00 | 0.00 | 66 | 1011.2 |
| 20260905184555 | 80 | 331 | 4.0 | 10.0 | 0.00 | 0.00 | 0.00 | 64 | 1011.3 |
| 20260905183058 | 80 | 335 | 5.0 | 11.0 | 0.00 | 0.00 | 0.00 | 65 | 1011.4 |
| 20260905181609 | 80 | 321 | 4.0 | 9.0 | 0.00 | 0.00 | 0.00 | 64 | 1011.6 |
| 20260905180051 | 79 | 327 | 4.0 | 10.0 | 0.00 | 0.00 | 0.00 | 67 | 1011.6 |
| 20260905174552 | 79 | 348 | 4.0 | 10.0 | 0.00 | 0.00 | 0.00 | 68 | 1011.6 |
| 20260905173057 | 78 | 320 | 4.0 | 9.0 | 0.00 | 0.00 | 0.00 | 70 | 1011.6 |
| 20260905171554 | 78 | 308 | 3.0 | 11.0 | 0.00 | 0.00 | 0.00 | 67 | 1012.0 |
| 20260905170053 | 78 | 324 | 4.0 | 11.0 | 0.00 | 0.00 | 0.00 | 68 | 1012.1 |
| 20260905164557 | 78 | 333 | 4.0 | 9.0 | 0.00 | 0.00 | 0.00 | 68 | 1012.0 |
| 20260905163054 | 79 | 329 | 4.0 | 9.0 | 0.00 | 0.00 | 0.00 | 69 | 1012.0 |
| 20260905161550 | 78 | 350 | 4.0 | 10.0 | 0.00 | 0.00 | 0.00 | 69 | 1012.2 |
| 20260905160133 | 78 | 36 | 6.0 | 12.0 | 0.00 | 0.00 | 0.00 | 68 | 1012.1 |
| 20260905154553 | 79 | 5 | 3.0 | 12.0 | 0.00 | 0.00 | 0.00 | 70 | 1012.3 |
| 20260905153051 | 78 | 351 | 5.0 | 13.0 | 0.00 | 0.00 | 0.00 | 67 | 1012.4 |
| 20260905151608 | 77 | 37 | 5.0 | 12.0 | 0.00 | 0.00 | 0.00 | 71 | 1012.4 |
| 20260905150058 | 76 | 11 | 4.0 | 12.0 | 0.00 | 0.00 | 0.00 | 71 | 1012.3 |
| 20260905144553 | 76 | 10 | 5.0 | 11.0 | 0.00 | 0.00 | 0.00 | 71 | 1012.3 |
| 20260905143108 | 76 | 343 | 7.0 | 12.0 | 0.00 | 0.00 | 0.00 | 71 | 1012.3 |
| 20260905141602 | 76 | 338 | 4.0 | 12.0 | 0.00 | 0.00 | 0.00 | 72 | 1012.1 |
| 20260905140058 | 77 | 15 | 7.0 | 14.0 | 0.00 | 0.00 | 0.00 | 71 | 1011.7 |
| 20260905134556 | 77 | 18 | 8.0 | 15.0 | 0.00 | 0.00 | 0.00 | 70 | 1011.8 |
| 20260905133052 | 76 | 13 | 9.0 | 13.0 | 0.00 | 0.00 | 0.00 | 71 | 1011.5 |
| 20260905131604 | 77 | 41 | 7.0 | 14.0 | 0.00 | 0.00 | 0.00 | 71 | 1011.4 |
| 20260905130056 | 77 | 40 | 7.0 | 13.0 | 0.00 | 0.00 | 0.00 | 70 | 1011.4 |
| 20260905124554 | 77 | 32 | 8.0 | 15.0 | 0.00 | 0.00 | 0.00 | 68 | 1011.5 |
| 20260905123052 | 77 | 49 | 8.0 | 15.0 | 0.00 | 0.00 | 0.00 | 68 | 1011.5 |
| 20260905121555 | 77 | 32 | 8.0 | 13.0 | 0.00 | 0.00 | 0.00 | 74 | 1011.5 |
| 20260905120113 | 77 | 26 | 7.0 | 14.0 | 0.00 | 0.00 | 0.00 | 76 | 1011.2 |
| 20260905114548 | 76 | 35 | 6.0 | 9.0 | 0.00 | 0.00 | 0.00 | 78 | 1011.1 |
| 20260905113052 | 76 | 51 | 3.0 | 9.0 | 0.00 | 0.00 | 0.00 | 84 | 1011.0 |
| 20260905111608 | 75 | 38 | 5.0 | 9.0 | 0.00 | 0.00 | 0.00 | 86 | 1010.9 |
| 20260905110056 | 75 | 37 | 4.0 | 10.0 | 0.00 | 0.00 | 0.00 | 87 | 1010.8 |
| 20260905104557 | 75 | 23 | 4.0 | 10.0 | 0.00 | 0.00 | 0.00 | 87 | 1010.6 |
| 20260905103054 | 75 | 17 | 4.0 | 11.0 | 0.00 | 0.00 | 0.00 | 88 | 1010.3 |
| 20260905101552 | 75 | 36 | 5.0 | 11.0 | 0.00 | 0.00 | 0.00 | 89 | 1010.0 |
| 20260905100052 | 75 | 5 | 4.0 | 9.0 | 0.00 | 0.00 | 0.00 | 93 | 1009.9 |
| 20260905094554 | 75 | 321 | 3.0 | 9.0 | 0.00 | 0.00 | 0.00 | 94 | 1009.9 |
| 20260905093056 | 74 | 347 | 2.0 | 5.0 | 0.00 | 0.00 | 0.00 | 93 | 1010.0 |
| 20260905091618 | 74 | 0 | 0.0 | 2.0 | 0.00 | 0.00 | 0.00 | 93 | 1009.9 |
| 20260905090128 | 74 | 0 | 1.0 | 2.0 | 0.00 | 0.00 | 0.00 | 92 | 1010.0 |
| 20260905084606 | 74 | 0 | 0.0 | 2.0 | 0.00 | 0.00 | 0.00 | 92 | 1010.1 |
| 20260905083052 | 74 | 13 | 1.0 | 2.0 | 0.00 | 0.00 | 0.00 | 91 | 1010.0 |
| 20260905081552 | 74 | 0 | 0.0 | 2.0 | 0.00 | 0.00 | 0.00 | 91 | 1010.1 |
| 20260905080055 | 74 | 13 | 0.0 | 2.0 | 0.00 | 0.00 | 0.00 | 90 | 1010.0 |